Location: Newark
(27.9675°N, 86.8869°E)
Time: 16:02:01
(UTC+00:00)

deb Explorer IX - Pass Details

Date: 26 October 2019
Orbit: 546 x 1105 km, 38.8° (Epoch: 16 November)

Event Time Altitude Azimuth Distance (km) Brightness Sun altitude
Rises 02:20:41 0° 200° (SSW) 2,686 ? 24.1°
Reaches altitude 10° 02:23:34 10° 178° (S) 1,805 ? 24.6°
Maximum altitude 02:26:09 16° 139° (SE) 1,478 ? 25.1°
Drops below altitude 10° 02:28:49 10° 99° (E) 1,881 ? 25.6°
Sets 02:31:55 0° 78° (ENE) 2,858 ? 26.2°
